COSMOS 2251 DEB

Satellite information

Favourite Embed

Satellite Type and Status

DEBRISIN ORBIT

Key statistics

Satellite COSMOS 2251 DEB at a glance.

Uptime

11869

Days in orbit

Revolutions

≈ 14.5

Per day

Orbit

LEO

Low Earth Orbit

Inclination

73.9

Latest

Satellite identification and parameters

Extended collection of information and parameters for COSMOS 2251 DEB.

Object identification

Identified? True

Debris? True

Object name: COSMOS 2251 DEB

International designator: 1993-036AGC

Object number (NORAD): 35015

Object ID (CCSDS): 35015

Country: COMMONWEALTH OF INDEPENDENT STATES (CIS)

Current information (Y/N): Y

RCS size: SMALL

Orbital parameters

Period: 99.527 minutes

Inclination: 73.9478 deg

SMA: 7114.121 km

Apoapsis: 788.776 km

Periapsis: 683.197 km

RAAN: 241.8046 deg

Eccentricy: 0.0074204

Argument of periapsis: 111.6456 deg

Mean anomaly: 265.9615 deg

Mean motion: 14.46841193 rev/day

Mean motion (dot): 0.0000357 rev/day2

B* drag term: 0.00095869 1/REarth

Two-line elements (TLE)

Creation date: Dec. 9, 2025, 8:06 a.m.

Reference frame: TEME

Reference center: EARTH

Epoch: Dec. 8, 2025, 11:19 p.m. UTC

TLE line 0: 0 COSMOS 2251 DEB

TLE line 1: 1 35015U 93036AGC 25342.97159361 .00003570 00000-0 95869-3 0 9997

TLE line 2: 2 35015 73.9478 241.8046 0074204 111.6456 265.9615 14.46841193653863

Live tracking on map

Real-time ground track for satellite COSMOS 2251 DEB.

In-orbit conjunctions

A list of the most updated potential collisions computed for object COSMOS 2251 DEB.

Target Orbit TCA Probability of collision Miss distance Type
FENGYUN 1C DEB SSO 2024-11-10 13:52:41 0.0002646464 882.0 (m) DEBRIS

Associated space launch

Military communications satellite. Destroyed in a collision with Iridium 33.

COSMOS 2251 DEB was lifted into orbit during the mission ‘Kosmos-3M | Strela-2M 51’, on board a Kosmos-3M space rocket.

The launch took place on June 16, 1993, 4:17 a.m. from 132/1 (132L).

For more information about the launch, click the button.

Launch to space Kosmos-3M | Strela-2M 51
Kosmos-3M | Strela-2M 51

Agency: N/A

Status: Launch Successful

Launch date: June 16, 1993, 4:17 a.m. UTC

Rocket: Kosmos-3M

Launch pad: 132/1 (132L)

Location: Plesetsk Cosmodrome, Russian Federation

...

Latest news about this satellite

There are no fresh news available about this satellite. Check back as we update our databases every day.


Newsletter sign-up

Weekly statistics, charts and insights to help you stay on top of the space industry.